Weather History for KSLC - July, 2013

Change the Weather History Date:

Monday, July 29, 2013

  Actual Average Record
Temperature  
Mean Temperature 80 °F 80 °F  
Max Temperature 89 °F 94 °F 106 °F (1995)
Min Temperature 71 °F 66 °F 45 °F (1948)
Degree Days  
Heating Degree Days 0 0  
Month to date heating degree days 0 0  
Since 1 June heating degree days 4 46  
Since 1 July heating degree days 0 0  
Cooling Degree Days 15 15  
Month to date cooling degree days 558 396  
Year to date cooling degree days 951 633  
Since 1 June cooling degree days 881 583  
Growing Degree Days 30 (Base 50)    
Moisture  
Dew Point 49 °F    
Average Humidity 37    
Maximum Humidity 53    
Minimum Humidity 21    
Precipitation  
Precipitation T in 0.02 in 1.36 in (1969)
Month to date precipitation 1.15 0.57  
Year to date precipitation 7.27 9.78  
Snow  
Snow 0.00 in 0.00 in - ()
Month to date snowfall 0.0 0.0  
Since 1 July snowfall 0.0 0.0  
Snow Depth 0.00 in    
Sea Level Pressure  
Sea Level Pressure 29.87 in    
Wind  
Wind Speed 8 mph (SSE)    
Max Wind Speed 20 mph    
Max Gust Speed 24 mph    
Visibility 10 miles    
Events      
T = Trace of Precipitation, MM = Missing Value Source: NWS Daily Summary

Daily Weather History Graph

Daily Weather History Graph

Search for Another Location

Airport or City:

Trip Planner

Search our weather history database for the weather conditions in past years. The results will help you decide how hot, cold, wet, or windy it might be!

Date:

Astronomy

Jul. 29, 2013 Rise Set
Actual Time 6:21 AM MDT 8:46 PM MDT
Civil Twilight 5:50 AM MDT 9:17 PM MDT
Nautical Twilight 5:12 AM MDT 9:55 PM MDT
Astronomical Twilight 4:29 AM MDT 10:37 PM MDT
Moon 12:07 AM MDT (7/29) 2:10 PM MDT (7/29)
Length of Visible Light 15h 26m
Length of Day
14h 24m
Waning Gibbous, 50% of the Moon is Illuminated
Jul 29
Waning Gibbous
Aug 6
New
Aug 14
First Quarter
Aug 20
Full
Aug 28
Last Quarter

Hourly Weather History & Observations

Time (MDT) Temp. Dew Point Humidity Pressure Visibility Wind Dir Wind Speed Gust Speed Precip Events Conditions
12:53 AM 73.0 °F 48.9 °F 42% 29.78 in 10.0 mi ESE 10.4 mph - N/A   Mostly Cloudy
1:53 AM 73.0 °F 52.0 °F 48% 29.79 in 10.0 mi South 12.7 mph - N/A   Mostly Cloudy
2:53 AM 73.0 °F 52.0 °F 48% 29.79 in 10.0 mi SSW 6.9 mph - N/A   Overcast
3:53 AM 72.0 °F 52.0 °F 49% 29.80 in 10.0 mi SSE 8.1 mph - N/A   Mostly Cloudy
4:53 AM 72.0 °F 53.1 °F 51% 29.81 in 10.0 mi South 6.9 mph - N/A   Overcast
5:53 AM 71.1 °F 52.0 °F 51% 29.83 in 10.0 mi SE 3.5 mph - N/A   Mostly Cloudy
6:53 AM 72.0 °F 51.1 °F 48% 29.84 in 10.0 mi SSE 11.5 mph - N/A   Mostly Cloudy
7:53 AM 73.0 °F 52.0 °F 48% 29.86 in 10.0 mi SE 11.5 mph 19.6 mph N/A   Mostly Cloudy
8:53 AM 73.9 °F 53.1 °F 48% 29.88 in 10.0 mi SSE 13.8 mph 20.7 mph 0.00 in   Mostly Cloudy
9:53 AM 77.0 °F 52.0 °F 42% 29.89 in 10.0 mi SSE 10.4 mph - N/A   Mostly Cloudy
10:53 AM 79.0 °F 50.0 °F 36% 29.91 in 10.0 mi South 6.9 mph - N/A   Mostly Cloudy
11:53 AM 82.0 °F 46.9 °F 29% 29.90 in 10.0 mi SE 5.8 mph - N/A   Mostly Cloudy
1:53 PM 81.0 °F 50.0 °F 34% 29.90 in 10.0 mi NW 6.9 mph - 0.00 in   Mostly Cloudy
2:53 PM 82.9 °F 43.0 °F 24% 29.88 in 10.0 mi NW 6.9 mph - N/A   Mostly Cloudy
3:53 PM 86.0 °F 44.1 °F 23% 29.85 in 10.0 mi Variable 4.6 mph - N/A   Mostly Cloudy
4:53 PM 87.1 °F 43.0 °F 21% 29.83 in 10.0 mi South 8.1 mph - N/A   Mostly Cloudy
5:53 PM 87.1 °F 45.0 °F 23% 29.83 in 10.0 mi South 6.9 mph - N/A   Mostly Cloudy
6:53 PM 89.1 °F 45.0 °F 22% 29.83 in 10.0 mi Calm Calm - N/A   Mostly Cloudy
7:53 PM 82.9 °F 46.9 °F 28% 29.86 in 10.0 mi SSE 25.3 mph 32.2 mph N/A   Mostly Cloudy
7:59 PM 82.4 °F 46.4 °F 28% 30.03 in 10.0 mi South 24.2 mph 32.2 mph N/A   Mostly Cloudy
8:53 PM 79.0 °F 46.9 °F 32% 29.88 in 10.0 mi South 13.8 mph 25.3 mph N/A   Scattered Clouds
9:53 PM 77.0 °F 46.0 °F 33% 29.92 in 10.0 mi South 10.4 mph - N/A   Scattered Clouds
10:53 PM 75.9 °F 48.0 °F 37% 29.94 in 10.0 mi South 13.8 mph 21.9 mph N/A   Scattered Clouds
11:53 PM 75.0 °F 48.9 °F 40% 29.94 in 10.0 mi SSE 10.4 mph - N/A   Mostly Cloudy